Location: Grand Lay
(47.3253°N, 0.9468°E)
Time: 18:22:05
(UTC+00:00)

Cosmos 1269 Rocket - Visible Passes

Search period start: 11 April 2026 00:00
Search period end: 21 April 2026 00:00
Orbit: 769 x 774 km, 74.1° (Epoch: 11 April)

Date Brightness Start Highest point End Pass type
(mag) Time Alt. Az. Time Alt. Az. Time Alt. Az.
11 Apr 6.5 00:52:16 10° NW 00:52:55 12° NW 00:52:55 12° NW visible
11 Apr 5.2 22:33:17 10° N 22:37:13 36° NNE 22:37:13 36° NNE visible
12 Apr 6.0 00:15:38 10° NW 00:17:32 20° NW 00:17:32 20° NW visible
12 Apr 5.4 21:57:33 10° N 22:01:51 27° NE 22:01:51 27° NE visible
12 Apr 5.5 23:39:20 10° NNW 23:42:11 31° NW 23:42:11 31° NW visible
13 Apr 5.8 21:21:59 10° N 21:25:39 18° NE 21:26:30 18° ENE visible
13 Apr 4.9 23:03:10 10° NNW 23:06:50 46° NNW 23:06:50 46° NNW visible
14 Apr 6.2 20:46:49 10° NNE 20:49:11 13° NE 20:51:11 11° ENE visible
14 Apr 4.5 22:27:11 10° NNW 22:31:31 54° NNE 22:31:31 54° NNE visible
15 Apr 6.3 00:10:24 10° NW 00:11:51 15° WNW 00:11:51 15° WNW visible
15 Apr 4.7 21:51:17 10° N 21:56:12 41° ENE 21:56:12 41° ENE visible
15 Apr 5.7 23:33:43 10° NW 23:36:32 25° WNW 23:36:32 25° WNW visible
16 Apr 5.2 21:15:32 10° N 21:20:04 28° NE 21:20:55 27° ENE visible
16 Apr 5.0 22:57:22 10° NNW 23:01:15 41° WNW 23:01:15 41° WNW visible
17 Apr 5.7 20:39:57 10° N 20:43:43 19° NE 20:45:39 16° ENE visible
17 Apr 4.2 22:21:13 10° NNW 22:25:59 70° NW 22:25:59 70° NW visible
18 Apr 6.1 20:04:42 10° NNE 20:07:16 13° NE 20:09:48 10° ENE visible
18 Apr 4.0 21:45:12 10° NNW 21:50:28 68° ENE 21:50:44 67° E visible
18 Apr 6.1 23:28:32 10° NW 23:31:04 17° W 23:31:04 17° W visible
19 Apr 4.6 21:09:17 10° NNW 21:14:20 43° ENE 21:15:30 38° E visible
19 Apr 5.4 22:51:48 10° NW 22:55:51 28° W 22:55:51 28° W visible
20 Apr 5.2 20:33:31 10° N 20:38:07 29° NE 20:40:18 22° E visible
20 Apr 4.6 22:15:25 10° NNW 22:20:27 46° WSW 22:20:39 46° WSW visible
